Yaogan 37 01 xing

operational
NORAD ID: 55244 Int'l Des: 2023-006 Owner: ZZB Country: CN Constellation: yaogan
LEOCIRCULAR

关于 Yaogan 37 01 xing

正在加载描述...

实时位置

正在加载3D地球...

即将过境

高度历史

Altitude vs Time

uPlot chart will show altitude changes over time

两行轨道根数

1 55244U 23006C 26063.17119523 .00010542 00000-0 54814-3 0 9994
2 55244 43.1980 344.0463 0016776 68.6983 291.5657 15.16036100173939
Epoch: Mar 4, 2026 • Age: 11 hours

当前状态

高度 538.5 km
速度 7.59 km/s
星下点 -33.84°S, 126.56°W
发射日期 Jan 13, 2023
运行时间 3.1 years
类型 military

技术详情

分类 Payload
质量 1000.00 kg
干质量 1000.00 kg
总质量 1000.00 kg
长度 2.50 m
直径 2.50 m
跨度 5.00 m
形状 Box + 2 Pan
制造商 DFHZ
阶段状态 In Orbit
所有者/国家 ZZB/CN

大型星座

Loading constellations...